Change the Weather History Date:

Sunday, September 9, 2012

  Actual Average (KBGD) Record (KBGD)
Temperature  
Mean Temperature 66 °F 74 °F  
Max Temperature 82 °F 86 °F 99 °F (1970)
Min Temperature 51 °F 62 °F 45 °F (2001)
Degree Days  
Heating Degree Days 0 0  
Month to date heating degree days 0  
Since 1 July heating degree days 1  
Cooling Degree Days 2 10  
Month to date cooling degree days 97  
Year to date cooling degree days 1647  
Growing Degree Days 16 (Base 50)    
Moisture  
Dew Point 39 °F    
Average Humidity 41    
Maximum Humidity 76    
Minimum Humidity 17    
Precipitation  
Precipitation 0.00 in 0.11 in 1.36 in (2007)
Month to date precipitation 0.73  
Year to date precipitation 16.74  
Snow  
Snow 0.00 in - 0.00 in (2013)
Month to date snowfall  
Since 1 July snowfall  
Since 1 September snowfall  
Snow Depth -    
Sea Level Pressure  
Sea Level Pressure 30.24 in    
Wind  
Wind Speed 7 mph (SSW)    
Max Wind Speed 10 mph    
Max Gust Speed 9 mph    
Visibility 10 miles    
Events      
T = Trace of Precipitation, MM = Missing Value Source: NWS Daily Summary

Daily Weather History Graph

Daily Weather History Graph

Search for Another Location

Airport or City:

Trip Planner

Search our weather history database for the weather conditions in past years. The results will help you decide how hot, cold, wet, or windy it might be!

Date:

Astronomy

Sep. 09, 2012 Rise Set
Actual Time 7:26 AM CDT 8:03 PM CDT
Civil Twilight 7:00 AM CDT 8:29 PM CDT
Nautical Twilight 6:30 AM CDT 8:59 PM CDT
Astronomical Twilight 5:59 AM CDT 9:30 PM CDT
Moon 1:06 AM CDT (9/9) 3:41 PM CDT (9/9)
Length of Visible Light 13h 28m
Length of Day
12h 36m
Last Quarter, 39% of the Moon is Illuminated
Sep 9
Last Quarter
Sep 15
New
Sep 22
First Quarter
Sep 29
Full
Oct 8
Last Quarter

Hourly Weather History & Observations

Time (CDT) Temp. Dew Point Humidity Pressure Visibility Wind Dir Wind Speed Gust Speed Precip Events Conditions
12:15 AM 55.4 °F 42.8 °F 63% 30.26 in 10.0 mi South 6.9 mph - N/A   Clear
12:35 AM 55.4 °F 42.8 °F 63% 30.26 in 10.0 mi SSW 6.9 mph - N/A   Clear
12:55 AM 55.4 °F 42.8 °F 63% 30.26 in 10.0 mi SW 10.4 mph - N/A   Clear
1:15 AM 55.4 °F 42.8 °F 63% 30.26 in 10.0 mi WSW 9.2 mph - N/A   Clear
1:35 AM 55.4 °F 42.8 °F 63% 30.25 in 10.0 mi WSW 8.1 mph - N/A   Clear
1:55 AM 55.4 °F 42.8 °F 63% 30.25 in 10.0 mi WSW 8.1 mph - N/A   Scattered Clouds
2:15 AM 53.6 °F 42.8 °F 67% 30.25 in 10.0 mi SW 8.1 mph - N/A   Scattered Clouds
2:35 AM 53.6 °F 42.8 °F 67% 30.25 in 10.0 mi SW 9.2 mph - N/A   Clear
2:55 AM 55.4 °F 42.8 °F 63% 30.25 in 10.0 mi SW 9.2 mph - N/A   Clear
3:15 AM 53.6 °F 42.8 °F 67% 30.25 in 10.0 mi SW 10.4 mph - N/A   Clear
3:35 AM 55.4 °F 42.8 °F 63% 30.25 in 10.0 mi SW 10.4 mph - N/A   Clear
3:55 AM 55.4 °F 42.8 °F 63% 30.25 in 10.0 mi WSW 9.2 mph - N/A   Scattered Clouds
4:15 AM 55.4 °F 44.6 °F 67% 30.25 in 10.0 mi WSW 8.1 mph - N/A   Clear
4:35 AM 53.6 °F 44.6 °F 72% 30.25 in 10.0 mi WSW 8.1 mph - N/A   Clear
4:55 AM 53.6 °F 44.6 °F 72% 30.25 in 10.0 mi WSW 6.9 mph - N/A   Clear
5:15 AM 51.8 °F 44.6 °F 76% 30.25 in 10.0 mi WSW 8.1 mph - N/A   Clear
5:35 AM 51.8 °F 44.6 °F 76% 30.25 in 10.0 mi WSW 6.9 mph - N/A   Clear
5:55 AM 51.8 °F 44.6 °F 76% 30.26 in 10.0 mi WSW 8.1 mph - N/A   Clear
6:15 AM 51.8 °F 44.6 °F 76% 30.26 in 10.0 mi West 6.9 mph - N/A   Clear
7:15 AM 51.8 °F 44.6 °F 76% 30.27 in 10.0 mi West 6.9 mph - N/A   Clear
7:35 AM 51.8 °F 44.6 °F 76% 30.27 in 10.0 mi West 6.9 mph - N/A   Clear
7:55 AM 51.8 °F 44.6 °F 76% 30.27 in 10.0 mi West 8.1 mph - N/A   Clear
8:35 AM 59.0 °F 46.4 °F 63% 30.28 in 10.0 mi West 6.9 mph - N/A   Clear
8:55 AM 60.8 °F 46.4 °F 59% 30.29 in 10.0 mi West 8.1 mph - N/A   Clear
9:15 AM 64.4 °F 46.4 °F 52% 30.29 in 10.0 mi West 5.8 mph - N/A   Clear
9:35 AM 68.0 °F 44.6 °F 43% 30.29 in 10.0 mi WNW 4.6 mph - N/A   Clear
9:55 AM 69.8 °F 44.6 °F 40% 30.30 in 10.0 mi NW 4.6 mph - N/A   Clear
10:15 AM 71.6 °F 44.6 °F 38% 30.30 in 10.0 mi NW 5.8 mph - N/A   Clear
10:35 AM 73.4 °F 42.8 °F 33% 30.30 in 10.0 mi WNW 4.6 mph - N/A   Clear
10:55 AM 73.4 °F 42.8 °F 33% 30.30 in 10.0 mi Calm Calm - N/A   Clear
11:15 AM 77.0 °F 41.0 °F 28% 30.30 in 10.0 mi West 3.5 mph - N/A   Clear
11:35 AM 77.0 °F 39.2 °F 26% 30.30 in 10.0 mi NW 3.5 mph - N/A   Clear
11:55 AM 78.8 °F 37.4 °F 23% 30.30 in 10.0 mi Calm Calm - N/A   Clear
12:15 PM 78.8 °F 37.4 °F 23% 30.29 in 10.0 mi South 5.8 mph - N/A   Clear
12:35 PM 78.8 °F 35.6 °F 21% 30.29 in 10.0 mi SW 5.8 mph - N/A   Clear
12:55 PM 78.8 °F 37.4 °F 23% 30.28 in 10.0 mi SW 3.5 mph - N/A   Clear
1:15 PM 78.8 °F 37.4 °F 23% 30.27 in 10.0 mi NNW 4.6 mph - N/A   Clear
1:35 PM 80.6 °F 37.4 °F 21% 30.26 in 10.0 mi SE 4.6 mph - N/A   Clear
1:55 PM 80.6 °F 37.4 °F 21% 30.26 in 10.0 mi SSE 5.8 mph - N/A   Clear
2:15 PM 80.6 °F 35.6 °F 20% 30.25 in 10.0 mi West 4.6 mph - N/A   Clear
2:35 PM 80.6 °F 35.6 °F 20% 30.24 in 10.0 mi SSE 4.6 mph - N/A   Clear
2:55 PM 80.6 °F 35.6 °F 20% 30.24 in 10.0 mi Calm Calm - N/A   Clear
3:15 PM 82.4 °F 35.6 °F 19% 30.22 in 10.0 mi SSE 8.1 mph - N/A   Clear
3:35 PM 80.6 °F 33.8 °F 18% 30.22 in 10.0 mi Calm Calm - N/A   Clear
3:55 PM 82.4 °F 35.6 °F 19% 30.21 in 10.0 mi South 5.8 mph 9.2 mph N/A   Clear
4:15 PM 82.4 °F 35.6 °F 19% 30.21 in 10.0 mi SE 6.9 mph - N/A   Clear
4:35 PM 82.4 °F 35.6 °F 19% 30.20 in 10.0 mi SE 9.2 mph - N/A   Clear
4:55 PM 82.4 °F 35.6 °F 19% 30.20 in 10.0 mi SE 4.6 mph - N/A   Clear
5:15 PM 82.4 °F 33.8 °F 17% 30.20 in 10.0 mi ESE 8.1 mph - N/A   Clear
5:35 PM 82.4 °F 33.8 °F 17% 30.20 in 10.0 mi SE 8.1 mph - N/A   Clear
5:55 PM 82.4 °F 33.8 °F 17% 30.20 in 10.0 mi SSE 10.4 mph - N/A   Clear
6:15 PM 80.6 °F 32.0 °F 17% 30.19 in 10.0 mi ESE 4.6 mph - N/A   Clear
6:35 PM 80.6 °F 33.8 °F 18% 30.19 in 10.0 mi SE 9.2 mph - N/A   Clear
6:55 PM 80.6 °F 33.8 °F 18% 30.19 in 10.0 mi South 5.8 mph - N/A   Clear
7:15 PM 78.8 °F 33.8 °F 20% 30.18 in 10.0 mi SE 6.9 mph - N/A   Clear
7:35 PM 77.0 °F 33.8 °F 21% 30.18 in 10.0 mi SE 5.8 mph - N/A   Clear
7:55 PM 73.4 °F 32.0 °F 22% 30.18 in 10.0 mi SSE 5.8 mph - N/A   Clear
8:15 PM 69.8 °F 33.8 °F 27% 30.18 in 10.0 mi SSE 5.8 mph - N/A   Clear
8:35 PM 69.8 °F 35.6 °F 28% 30.19 in 10.0 mi South 6.9 mph - N/A   Clear
8:55 PM 69.8 °F 35.6 °F 28% 30.19 in 10.0 mi South 6.9 mph - N/A   Clear
9:15 PM 69.8 °F 35.6 °F 28% 30.19 in 10.0 mi SSW 5.8 mph - N/A   Clear
9:35 PM 68.0 °F 35.6 °F 30% 30.20 in 10.0 mi SE 3.5 mph - N/A   Clear
9:55 PM 69.8 °F 33.8 °F 27% 30.20 in 10.0 mi ESE 5.8 mph - N/A   Clear
10:15 PM 64.4 °F 35.6 °F 34% 30.20 in 10.0 mi SE 8.1 mph - N/A   Clear
10:35 PM 62.6 °F 37.4 °F 39% 30.20 in 10.0 mi SE 8.1 mph - N/A   Clear
10:55 PM 62.6 °F 37.4 °F 39% 30.20 in 10.0 mi SE 8.1 mph - N/A   Clear
11:15 PM 62.6 °F 37.4 °F 39% 30.21 in 10.0 mi SSE 8.1 mph - N/A   Clear
11:35 PM 62.6 °F 37.4 °F 39% 30.21 in 10.0 mi SSE 8.1 mph - N/A   Clear
11:55 PM 59.0 °F 37.4 °F 45% 30.21 in 10.0 mi SSE 6.9 mph - N/A   Clear